Dewpoint
-2 0 1 -0 0 1 2 3 3 10 11 12 13 13 12 12 9 11 9 9 11 12 12 11 12 13 14 14 14 14 14 13 14 13 14 13 13 14 15 14 14 14 14 14
-3 -0 -1 -2 -1 0 1 2 6 11 10 12 13 11 10 9 9 11 10 11 8 10 8 12 13 13 13 13 14 14 13 13 14 14 14 15 12 14 15 15 14 14 14 14
-2 -2 -4 -3 -2 -1 -2 -3 7 10 9 7 7 8 10 9 9 11 12 11 8 7 8 10 13 13 13 13 14 13 14 14 14 14 15 15 15 14 14 14 14 15 14 14
-5 -6 -5 -4 -2 -3 -3 -8 -1 10 9 10 7 11 10 11 14 14 14 13 12 10 7 9 11 13 14 13 13 13 14 14 14 14 15 14 13 12 12 14 15 15 15 15
-5 -5 -4 -3 -3 -6 -5 -7 7 8 0 5 8 8 8 10 13 14 15 8 12 14 11 12 10 13 15 14 14 14 14 14 14 14 14 14 13 14 13 14 15 16 15 16
-7 -9 -8 -7 -7 -6 -9 -9 -4 2 1 9 8 8 9 12 11 12 15 6 12 14 12 8 12 12 11 14 14 14 12 14 14 13 15 14 15 15 15 11 14 15 16 15
-7 -8 -9 -10 -9 -12 -9 -7 -4 -3 7 6 9 9 7 11 13 13 16 15 16 14 12 10 17 16 14 12 13 13 14 13 14 14 15 15 15 15 14 13 14 14 14 15
-5 -5 -11 -12 -11 -10 -10 -8 -4 -3 8 9 11 11 13 12 13 15 14 16 17 16 16 17 16 16 16 16 17 15 15 16 15 14 15 16 16 16 17 16 16 16 15 15
-6 -7 -9 -11 -12 -13 -10 -8 -4 9 11 11 13 13 11 12 13 15 15 15 15 16 17 16 15 15 14 15 16 16 15 17 17 18 17 18 18 17 17 16 16 16 16 16
-9 -7 -10 -1 -5 1 -9 -1 4 6 11 12 14 14 13 14 14 13 13 13 14 14 13 12 11 9 8 8 10 13 15 15 16 17 17 17 17 18 18 17 17 17 16 16
-10 -10 -10 3 5 3 4 6 8 8 10 13 13 13 12 12 13 12 12 13 12 12 11 9 8 8 7 7 5 5 6 8 11 13 13 14 15 15 15 16 16 16 16 17
-11 -7 4 6 5 4 5 6 5 6 10 11 10 9 12 11 12 11 11 11 10 10 10 9 8 8 8 8 6 3 5 5 5 5 6 9 11 13 13 14 14 15 15 15
-6 -1 7 7 4 4 8 8 8 8 9 11 11 11 12 10 11 10 10 11 10 10 10 9 8 8 8 7 6 7 8 8 8 8 8 8 7 7 8 10 12 13 14 14
2 5 4 7 5 6 8 8 8 8 10 12 12 10 11 11 10 11 9 10 10 10 9 8 8 8 7 7 7 8 8 6 5 6 5 5 4 6 9 9 9 10 12 13
3 8 8 8 8 6 7 7 8 7 9 8 7 11 7 11 9 10 9 9 10 9 8 8 7 6 6 5 6 6 3 3 4 3 3 3 3 3 7 9 9 9 11 13
4 9 8 8 9 8 7 7 8 7 10 9 8 8 8 8 10 9 9 9 9 8 7 7 7 7 6 6 5 3 3 4 4 5 5 5 5 5 6 8 9 9 9 11
4 8 8 9 10 8 6 7 7 8 9 8 9 8 11 11 10 9 9 8 8 7 6 6 7 7 6 3 3 4 5 3 4 4 5 5 6 6 5 5 5 7 7 8
8 7 9 11 8 9 5 5 6 7 7 8 9 9 10 10 10 9 8 8 7 6 7 7 6 5 3 3 5 5 3 4 5 5 6 6 6 6 6 6 6 6 7 6
4 5 8 10 9 6 1 6 7 5 7 5 8 8 8 8 8 7 7 7 6 6 6 6 5 4 4 4 3 1 3 4 5 6 6 6 6 6 6 7 7 7 8 7
4 4 5 7 7 7 2 1 3 2 5 7 8 7 7 6 9 7 6 6 6 6 5 4 4 5 5 5 0 -0 5 6 6 6 7 7 8 8 8 7 8 8 9 9
5 6 6 6 5 5 3 3 2 5 4 7 8 7 6 6 6 6 6 6 5 5 4 4 5 6 5 1 -4 -1 4 6 6 7 7 8 8 9 8 7 8 9 9 9
5 6 6 7 6 6 4 4 2 3 6 7 7 6 5 5 5 5 5 5 4 4 5 5 5 5 2 -3 -3 -2 1 5 7 7 8 8 8 9 9 9 9 10 10 9
2 3 6 7 7 5 7 6 5 4 6 6 6 6 5 5 5 5 5 4 4 4 4 4 5 3 -1 -3 -3 1 5 6 7 7 8 8 8 8 8 9 9 10 10 10
3 6 8 6 6 6 6 5 5 5 5 5 5 4 4 4 5 5 5 4 4 4 5 5 4 2 -0 -4 -2 3 6 7 7 8 8 8 8 8 8 8 8 10 10 10
3 4 7 7 7 7 6 5 4 4 4 4 4 3 3 3 5 4 4 4 4 5 5 4 0 0 0 -5 -1 1 1 7 7 7 7 7 7 8 8 8 8 9 9 9
2 2 4 8 6 6 6 5 5 5 5 4 4 3 4 4 3 3 3 4 4 3 3 2 1 4 2 -2 -4 -1 -3 2 7 6 7 7 7 7 7 8 8 9 9 9
Wind_Speed
6 5 7 7 3 3 3 3 7 3 7 6 6 4 3 7 10 8 10 17 18 14 13 17 19 25 29 27 23 21 21 19 20 19 16 14 20 17 15 13 12 10 9 7
5 7 7 3 4 5 3 7 4 4 5 6 6 5 6 7 2 5 14 16 12 18 15 11 14 19 24 31 26 22 22 21 20 19 15 14 16 18 16 15 13 13 11 11
7 8 8 5 9 5 2 5 5 7 5 7 7 4 6 4 8 7 8 14 11 11 9 12 8 12 24 28 30 24 20 22 19 19 19 18 16 21 20 19 17 16 15 14
5 9 8 10 8 3 7 9 6 10 5 4 2 2 4 6 6 4 8 14 21 16 5 9 15 11 19 25 28 27 24 23 19 21 22 22 20 20 21 20 19 16 16 17
7 1 1 5 11 4 10 4 8 5 6 5 8 5 6 4 5 6 13 6 20 18 6 8 2 9 6 18 24 27 23 21 19 23 23 22 25 24 21 23 21 21 20 18
7 6 6 9 7 6 2 5 9 6 5 3 4 3 5 1 4 4 4 16 28 26 18 5 3 2 4 9 22 24 16 20 6 15 27 27 28 28 28 26 27 23 21 20
8 6 4 6 4 3 5 7 3 4 5 4 2 3 5 5 6 6 19 8 13 10 19 9 2 4 2 2 11 15 23 20 23 16 18 23 28 25 27 24 25 27 25 22
2 8 5 4 8 9 2 9 6 4 4 2 3 2 3 4 8 13 15 24 19 19 20 18 15 13 15 10 7 9 13 12 27 18 21 24 19 22 16 20 24 26 26 22
5 6 5 4 5 8 3 2 3 8 3 3 4 5 4 5 7 9 9 20 22 19 14 11 9 11 15 15 14 13 9 13 13 10 6 9 17 18 17 19 20 25 23 18
5 2 3 5 2 9 5 5 3 4 4 2 3 5 5 8 10 8 8 20 23 18 16 13 11 12 12 13 13 9 7 6 5 1 2 5 8 11 14 17 17 18 17 16
6 4 6 6 5 1 2 3 8 6 3 5 1 6 5 10 13 11 14 23 25 20 15 11 10 10 10 13 13 12 10 9 7 5 5 5 7 10 13 15 16 17 17 18
6 5 4 2 7 4 4 5 5 5 4 1 4 6 3 10 17 23 22 24 21 19 17 12 8 5 6 10 14 15 13 13 12 12 11 12 13 14 15 14 16 17 17 16
9 0 4 7 6 4 7 3 4 6 4 6 5 5 4 12 13 24 26 28 26 24 20 15 10 5 5 9 11 12 14 15 16 15 15 15 16 17 19 18 18 18 19 19
6 4 8 8 7 5 4 5 3 5 4 5 5 2 2 7 9 17 26 30 27 24 19 14 7 2 5 7 9 10 13 16 16 15 16 17 17 17 18 18 19 19 20 20
5 4 3 3 5 4 7 7 7 4 5 6 5 8 8 12 13 22 27 27 27 23 17 10 4 3 8 11 12 16 17 18 20 22 22 22 20 18 18 19 19 19 19 19
3 2 3 4 5 5 1 5 7 4 3 5 4 7 8 18 17 20 24 28 30 23 17 11 4 2 6 10 14 16 18 22 24 26 26 24 22 21 20 21 21 20 19 20
3 6 3 2 2 4 5 9 9 5 5 7 5 7 5 5 16 25 28 30 29 23 16 10 5 4 6 10 12 14 18 22 23 22 20 20 21 21 20 21 22 22 23 23
6 5 4 2 1 1 6 3 8 7 1 6 1 2 8 11 15 26 25 30 26 20 15 10 5 4 7 10 12 16 19 19 19 17 17 17 19 20 20 19 18 17 19 21
4 5 3 4 3 4 1 2 7 7 7 4 4 5 12 24 23 12 24 26 23 16 11 7 3 5 8 10 14 17 16 16 17 17 17 18 19 19 17 16 17 19 20 20
5 6 5 3 3 6 6 4 6 4 2 7 14 14 21 17 4 4 19 17 16 12 7 3 2 5 8 13 15 17 16 15 16 16 16 18 19 19 18 16 16 16 16 18
3 2 5 3 2 6 6 4 5 5 7 9 18 22 23 4 2 19 19 16 11 8 5 3 3 7 13 16 18 17 16 15 15 15 15 16 17 17 16 15 15 15 15 18
6 6 3 3 2 5 4 2 5 5 6 14 20 24 17 8 16 23 20 16 12 10 7 3 8 12 15 17 17 17 14 12 13 13 13 13 15 14 16 15 14 15 16 17
2 5 4 6 5 3 4 3 6 11 19 18 19 20 15 17 20 19 18 15 13 6 5 7 11 14 14 14 15 15 13 12 13 13 13 13 12 13 14 14 14 16 17 18
1 4 3 3 3 3 10 19 18 19 21 20 20 18 11 11 15 15 14 13 9 7 6 8 10 12 12 12 13 13 12 12 11 11 11 11 13 11 12 13 13 15 18 17
3 2 5 2 3 7 11 18 21 19 17 17 15 10 11 15 17 16 16 13 9 7 7 9 10 9 9 9 8 11 12 9 9 10 12 12 12 12 12 10 11 9 14 19
1 5 4 5 16 8 22 23 22 22 20 17 16 15 14 13 14 14 12 9 7 7 8 7 6 6 8 7 9 10 12 10 8 10 10 11 11 12 13 13 8 6 8 13
Wind_Direction
20 30 260 247 173 220 253 253 268 90 131 81 64 69 351 163 168 155 192 208 198 173 184 202 212 222 222 229 217 222 226 219 213 209 210 220 221 228 235 237 239 249 261 258
8 265 273 317 276 254 181 257 232 51 72 79 107 51 346 32 258 270 223 228 229 217 187 194 214 216 223 225 224 223 223 219 221 217 217 227 225 228 235 235 241 250 248 253
194 241 339 345 303 330 18 187 195 156 112 82 130 46 345 333 327 294 242 274 268 305 245 197 211 252 227 225 226 226 230 220 226 224 226 234 234 231 237 238 237 238 244 249
230 266 260 292 291 111 302 212 188 134 112 130 353 141 320 312 348 338 300 272 285 284 328 331 266 262 238 234 226 228 235 227 236 238 237 242 250 247 246 247 248 245 247 252
237 151 354 248 244 154 241 187 137 102 92 103 355 94 258 288 352 357 306 295 312 284 224 26 358 227 229 221 238 238 236 240 243 233 243 248 257 258 260 250 252 248 251 254
230 268 205 224 261 224 90 88 40 56 80 61 251 133 266 247 250 312 40 305 294 280 230 277 57 32 257 235 231 231 230 225 264 261 251 252 255 257 262 255 251 247 247 256
321 261 246 183 200 359 92 60 359 5 14 202 62 97 229 215 231 218 144 233 269 257 224 186 95 66 155 200 218 221 233 230 233 266 251 249 260 261 255 255 259 256 254 257
176 324 194 173 185 194 191 148 152 214 190 254 21 237 163 170 123 184 165 133 114 108 122 126 96 80 77 79 102 195 206 234 219 211 253 245 258 272 264 255 252 256 259 265
172 274 313 226 205 136 165 71 167 104 49 83 285 270 293 183 141 189 141 113 111 115 118 97 69 64 58 60 62 87 100 101 118 160 218 253 262 268 270 274 268 266 267 260
217 285 326 297 76 38 131 148 73 30 125 226 274 280 206 147 156 182 159 126 124 123 118 106 85 59 43 42 42 45 47 55 81 129 203 245 255 265 273 277 282 282 284 269
135 117 280 37 359 209 71 66 54 107 108 146 293 270 198 159 170 168 163 145 140 139 131 112 87 62 39 25 16 10 1 353 345 333 306 296 284 281 277 278 280 281 278 269
211 122 57 170 283 353 87 104 119 117 224 218 146 268 352 162 156 156 165 159 157 151 144 138 137 101 50 16 360 352 344 335 329 320 308 297 296 295 297 292 286 286 287 287
177 89 90 343 340 343 69 63 93 96 80 189 140 261 78 122 138 155 164 169 165 160 157 157 146 114 34 3 354 349 346 343 334 325 316 305 298 294 290 290 290 288 287 287
92 100 162 178 187 146 108 144 181 107 123 178 226 286 212 172 174 175 171 174 171 167 163 165 158 95 4 348 345 338 334 329 328 326 324 322 316 299 292 295 290 287 285 287
90 90 86 97 136 130 169 182 181 167 170 156 236 197 219 194 192 191 172 170 171 168 167 170 184 311 328 329 330 327 327 328 327 325 323 320 314 309 298 292 290 285 280 282
35 121 52 46 14 27 214 222 193 203 158 312 285 282 191 202 187 181 171 170 170 170 169 172 187 275 307 322 327 328 328 327 327 326 322 319 316 309 302 297 291 287 281 274
76 137 105 192 348 354 308 221 191 196 192 168 176 229 153 157 166 174 171 175 173 174 177 178 196 256 315 329 327 321 322 323 323 325 323 320 320 316 310 305 291 287 285 280
125 98 51 143 270 157 243 274 195 193 220 202 355 214 192 174 170 177 179 176 176 177 177 184 214 294 322 327 322 320 320 320 321 323 326 321 320 318 314 311 310 306 296 290
112 109 97 136 193 283 278 198 157 176 242 214 191 121 127 129 122 137 177 180 179 176 177 191 247 310 323 324 322 320 319 316 315 315 319 321 322 327 328 317 318 320 315 311
56 76 114 136 145 211 243 279 222 126 296 208 158 159 147 137 126 211 166 169 162 172 185 213 264 320 320 326 327 324 322 318 319 320 324 326 328 329 330 330 329 327 328 327
90 58 154 160 202 289 256 294 174 116 234 166 166 161 156 96 143 160 163 160 168 175 189 223 296 310 325 329 327 321 314 312 320 324 326 331 329 329 332 332 331 326 327 322
166 142 195 101 122 264 173 198 155 199 154 158 160 166 155 131 135 156 160 165 175 186 181 263 298 317 326 325 324 321 312 311 318 325 329 337 340 345 341 334 334 327 324 324
83 174 183 165 213 270 282 248 159 164 157 153 163 162 160 141 148 159 164 170 180 211 257 278 306 320 323 324 322 325 328 325 322 327 332 343 339 342 340 337 342 342 341 336
313 159 108 79 332 15 127 134 132 129 131 138 144 148 157 168 171 176 183 193 214 229 257 296 312 318 323 327 334 344 341 336 336 340 342 340 338 337 338 339 347 346 347 343
213 109 132 44 359 104 162 157 149 142 141 144 149 152 169 179 179 187 183 189 202 231 270 297 304 312 326 329 335 348 339 335 342 352 351 344 340 341 333 346 353 3 348 355
227 179 150 208 192 173 190 173 168 163 161 159 150 152 171 189 187 186 189 200 227 265 282 288 295 309 328 328 327 336 345 337 337 338 339 342 338 338 337 340 354 338 351 340
Height
1503 1512 1520 1510 1514 1513 1516 1521 1521 1512 1511 1514 1528 1531 1528 1529 1528 1527 1525 1521 1523 1523 1521 1523 1528 1533 1539 1543 1544 1547 1549 1552 1553 1554 1556 1557 1559 1560 1561 1561 1562 1562 1563 1562
1512 1519 1502 1505 1506 1510 1515 1519 1519 1514 1513 1518 1535 1539 1533 1532 1531 1530 1526 1522 1522 1521 1520 1524 1528 1531 1534 1539 1543 1545 1547 1550 1553 1555 1556 1557 1558 1559 1559 1560 1560 1560 1561 1561
1519 1506 1501 1505 1506 1511 1512 1515 1516 1514 1516 1524 1533 1547 1541 1534 1532 1530 1529 1526 1520 1522 1524 1528 1531 1536 1535 1538 1541 1544 1546 1549 1551 1554 1556 1557 1557 1557 1557 1558 1558 1559 1559 1559
1511 1501 1503 1505 1507 1506 1520 1500 1498 1511 1521 1546 1531 1572 1549 1541 1533 1528 1526 1527 1525 1527 1528 1531 1533 1537 1538 1538 1541 1543 1546 1549 1553 1554 1555 1556 1557 1557 1556 1556 1556 1556 1557 1556
1510 1503 1505 1510 1503 1500 1506 1493 1500 1510 1527 1537 1544 1557 1553 1542 1538 1531 1524 1515 1522 1530 1536 1536 1532 1537 1539 1536 1539 1541 1544 1549 1551 1553 1554 1554 1555 1555 1555 1555 1554 1553 1553 1553
1504 1499 1500 1497 1492 1491 1492 1498 1513 1523 1537 1565 1548 1553 1558 1554 1543 1537 1531 1523 1528 1530 1536 1535 1535 1537 1536 1535 1537 1539 1539 1542 1548 1549 1551 1551 1550 1550 1549 1549 1550 1550 1550 1551
1506 1498 1490 1489 1496 1491 1496 1516 1551 1548 1560 1561 1548 1554 1550 1540 1540 1539 1536 1535 1538 1528 1531 1536 1536 1537 1535 1535 1534 1534 1535 1538 1542 1547 1549 1548 1544 1545 1544 1543 1545 1545 1546 1547
1524 1523 1489 1483 1489 1499 1496 1510 1546 1551 1569 1560 1546 1551 1542 1534 1531 1537 1535 1527 1531 1532 1532 1536 1538 1536 1536 1534 1530 1534 1536 1538 1541 1537 1541 1544 1542 1538 1540 1541 1540 1540 1541 1544
1525 1514 1485 1483 1480 1483 1500 1517 1511 1547 1555 1561 1565 1544 1536 1532 1533 1535 1534 1532 1533 1533 1536 1535 1537 1537 1538 1535 1536 1538 1539 1539 1540 1539 1540 1539 1539 1539 1538 1537 1536 1535 1531 1532
1498 1518 1489 1482 1480 1485 1488 1502 1523 1540 1561 1559 1561 1555 1547 1537 1535 1533 1535 1530 1533 1536 1536 1536 1536 1535 1536 1536 1536 1538 1539 1538 1537 1535 1536 1536 1537 1536 1534 1533 1531 1530 1530 1533
1495 1505 1500 1491 1502 1500 1501 1512 1530 1542 1554 1568 1571 1554 1522 1525 1525 1528 1530 1528 1529 1533 1535 1537 1536 1536 1536 1536 1536 1536 1536 1535 1535 1534 1534 1534 1533 1531 1531 1528 1526 1524 1525 1524
1488 1509 1528 1511 1500 1495 1496 1509 1519 1542 1553 1558 1555 1545 1514 1515 1518 1521 1524 1527 1528 1531 1534 1537 1538 1538 1536 1536 1536 1536 1535 1535 1533 1532 1530 1529 1528 1527 1526 1524 1522 1521 1519 1518
1482 1512 1535 1525 1511 1499 1505 1510 1515 1523 1536 1547 1551 1540 1516 1516 1520 1520 1523 1525 1528 1531 1534 1536 1538 1537 1535 1535 1536 1535 1534 1533 1532 1530 1528 1526 1524 1521 1521 1520 1519 1517 1515 1514
1473 1504 1509 1525 1513 1510 1513 1510 1513 1520 1542 1546 1538 1522 1518 1519 1519 1520 1522 1522 1527 1529 1531 1535 1536 1534 1534 1535 1534 1534 1534 1534 1532 1529 1526 1523 1520 1517 1516 1515 1514 1513 1511 1509
1479 1505 1503 1502 1501 1500 1504 1506 1511 1515 1521 1524 1514 1521 1510 1509 1511 1515 1519 1524 1527 1529 1531 1532 1532 1533 1533 1532 1532 1531 1531 1530 1528 1525 1521 1518 1516 1513 1512 1511 1509 1508 1506 1505
1483 1508 1502 1507 1505 1503 1506 1505 1507 1507 1514 1514 1510 1509 1496 1501 1509 1516 1516 1520 1525 1528 1529 1530 1531 1532 1532 1532 1530 1529 1528 1526 1524 1520 1517 1514 1512 1509 1508 1506 1504 1503 1502 1501
1489 1503 1511 1516 1512 1511 1518 1505 1503 1502 1502 1502 1513 1499 1498 1503 1505 1510 1513 1515 1521 1525 1527 1529 1531 1533 1532 1529 1529 1529 1527 1525 1522 1519 1516 1513 1510 1507 1504 1501 1500 1498 1496 1495
1490 1500 1513 1525 1517 1527 1497 1488 1488 1492 1492 1493 1494 1496 1495 1496 1501 1505 1511 1513 1519 1523 1527 1529 1531 1532 1530 1528 1528 1527 1525 1523 1521 1518 1515 1512 1508 1504 1501 1498 1496 1494 1491 1489
1480 1495 1517 1523 1528 1511 1491 1490 1494 1495 1497 1489 1492 1497 1498 1498 1501 1510 1512 1515 1519 1524 1527 1530 1531 1530 1529 1526 1525 1524 1523 1521 1519 1516 1513 1509 1504 1501 1498 1496 1493 1490 1487 1484
1486 1490 1506 1524 1520 1525 1497 1483 1483 1483 1505 1486 1488 1494 1494 1496 1510 1509 1512 1518 1521 1524 1527 1528 1529 1528 1527 1524 1522 1521 1520 1518 1516 1513 1510 1506 1502 1498 1495 1492 1490 1487 1484 1480
1500 1503 1509 1518 1514 1507 1486 1483 1483 1505 1504 1483 1487 1491 1493 1497 1500 1505 1512 1516 1521 1523 1526 1526 1527 1527 1524 1521 1520 1519 1517 1515 1512 1509 1506 1503 1500 1496 1493 1490 1487 1484 1481 1478
1495 1505 1510 1515 1514 1511 1480 1483 1489 1486 1482 1485 1488 1491 1497 1499 1502 1507 1512 1516 1519 1523 1524 1525 1526 1524 1520 1518 1517 1516 1513 1511 1509 1507 1504 1502 1499 1496 1493 1489 1486 1483 1479 1475
1492 1489 1495 1496 1498 1482 1481 1479 1478 1479 1480 1486 1491 1496 1500 1503 1506 1510 1513 1516 1520 1521 1522 1523 1522 1520 1519 1518 1516 1514 1510 1508 1507 1505 1503 1501 1498 1495 1492 1488 1485 1481 1476 1472
1480 1480 1488 1489 1485 1483 1481 1481 1483 1485 1486 1491 1495 1499 1502 1505 1507 1510 1513 1515 1516 1519 1521 1521 1520 1519 1518 1516 1514 1512 1510 1508 1506 1504 1502 1500 1497 1494 1491 1487 1483 1479 1475 1471
1482 1480 1486 1492 1487 1486 1485 1484 1485 1488 1491 1494 1498 1500 1502 1506 1508 1510 1512 1514 1517 1519 1520 1520 1518 1518 1517 1516 1514 1512 1510 1507 1505 1503 1500 1498 1494 1492 1489 1486 1482 1479 1476 1472
1478 1479 1485 1489 1479 1480 1482 1485 1487 1489 1492 1495 1497 1501 1505 1507 1508 1510 1513 1515 1516 1517 1517 1517 1517 1517 1516 1515 1513 1512 1509 1505 1503 1501 1499 1496 1493 1490 1487 1484 1483 1479 1476 1472